Date String (YYYY-MM-DD hh:mm:ss) UTC,Instrument flags,Ambient pressure (hPa),Sample flow (lpm),Bypass flow (lpm),Sample temperature (°C),Ambient temperature (°C),ASC tube jacket temperature (°C),LED temperature (°C),Box temperature (°C),Sample RH (%),Span deviation,Mass concentration (μg/m³),Mass concentration (μg/m³),Mass concentration (μg/m³)
DateTimeUTC,F1_M11,P_M11,Q1_M11,Q2_M11,T1_M11,T2_M11,T3_M11,T4_M11,T5_M11,U1_M11,ZSPAN_M11,X0_M11,X2_M11,X1_M11
2022-08-12 23:00:00,,0829.4,5.00,0.00,29.1,27.5,00.0,37.8,30.9,29.4,0000.0,0017.29,0004.77,0003.69
2022-08-12 23:01:00,,0829.5,5.00,0.00,29.1,27.7,00.0,37.9,31.0,29.3,0000.0,0016.76,0004.75,0003.69
2022-08-12 23:02:00,,0829.5,5.00,0.00,29.2,27.9,00.0,37.9,31.1,27.5,0000.0,0017.44,0004.78,0003.69
2022-08-12 23:03:00,,0829.4,4.99,0.00,29.2,28.2,00.0,37.9,31.2,27.1,0000.0,0019.11,0004.81,0003.71
2022-08-12 23:04:00,,0829.5,5.01,0.00,29.3,28.0,00.0,37.9,31.1,27.5,0000.0,0019.36,0004.82,0003.71
2022-08-12 23:05:00,,0829.5,4.99,0.00,29.2,27.5,00.0,37.9,31.0,27.2,0000.0,0019.56,0004.83,0003.70
2022-08-12 23:06:00,,0829.5,5.00,0.00,29.2,27.2,00.0,37.8,30.9,27.1,0000.0,0019.22,0004.85,0003.69
2022-08-12 23:07:00,,0829.5,4.99,0.00,29.1,27.3,00.0,37.9,30.9,27.3,0000.0,0019.32,0004.88,0003.69
2022-08-12 23:08:00,,0829.5,4.99,0.00,29.1,27.4,00.0,37.9,30.9,27.5,0000.0,0019.71,0004.88,0003.68
2022-08-12 23:09:00,,0829.5,5.02,0.00,29.1,27.6,00.0,37.9,31.0,27.5,0000.0,0019.43,0004.83,0003.66
2022-08-12 23:10:00,,0829.5,5.00,0.00,29.2,27.9,00.0,37.9,31.1,27.1,0000.0,0018.12,0004.80,0003.65
2022-08-12 23:11:00,,0829.5,5.01,0.00,29.2,28.1,00.0,37.9,31.2,26.8,0000.0,0017.66,0004.78,0003.65
2022-08-12 23:12:00,,0829.4,5.00,0.00,29.2,27.9,00.0,37.9,31.1,26.7,0000.0,0017.50,0004.72,0003.63
2022-08-12 23:13:00,,0829.4,4.98,0.00,29.2,27.4,00.0,37.9,31.0,26.9,0000.0,0017.29,0004.69,0003.62
2022-08-12 23:14:00,,0829.3,5.01,0.00,29.1,27.2,00.0,37.8,30.9,27.2,0000.0,0016.06,0004.68,0003.59
2022-08-12 23:15:00,,0829.3,5.00,0.00,29.1,27.2,00.0,37.8,30.9,27.2,0000.0,0016.42,0004.72,0003.58
2022-08-12 23:16:00,,0829.3,5.01,0.00,29.1,27.4,00.0,37.8,30.9,27.3,0000.0,0016.18,0004.70,0003.58
2022-08-12 23:17:00,,0829.3,4.99,0.00,29.1,27.6,00.0,37.8,31.0,27.7,0000.0,0015.78,0004.72,0003.59
2022-08-12 23:18:00,,0829.2,5.00,0.00,29.1,27.8,00.0,37.9,31.1,27.2,0000.0,0015.75,0004.72,0003.58
2022-08-12 23:19:00,,0829.4,5.00,0.00,29.2,28.0,00.0,37.9,31.2,27.2,0000.0,0014.96,0004.66,0003.57
2022-08-12 23:20:00,,0829.3,5.00,0.00,29.3,28.2,00.0,37.9,31.2,27.4,0000.0,0014.96,0004.66,0003.57
2022-08-12 23:21:00,,0829.3,5.00,0.00,29.2,27.7,00.0,37.9,31.0,27.6,0000.0,0014.23,0004.67,0003.56
2022-08-12 23:22:00,,0829.3,5.01,0.00,29.2,27.3,00.0,37.8,30.9,28.2,0000.0,0013.52,0004.65,0003.55
2022-08-12 23:23:00,,0829.4,5.00,0.00,29.1,27.2,00.0,37.8,30.9,28.3,0000.0,0013.24,0004.70,0003.55
2022-08-12 23:24:00,,0829.4,4.99,0.00,29.1,27.3,00.0,37.8,30.9,28.2,0000.0,0013.41,0004.69,0003.55
2022-08-12 23:25:00,,0829.2,5.01,0.00,29.1,27.5,00.0,37.8,30.9,28.7,0000.0,0013.40,0004.65,0003.54
2022-08-12 23:26:00,,0829.2,5.00,0.00,29.1,27.7,00.0,37.9,31.1,27.3,0000.0,0013.03,0004.61,0003.53
2022-08-12 23:27:00,,0829.4,5.00,0.00,29.2,28.0,00.0,37.9,31.1,26.9,0000.0,0013.34,0004.65,0003.53
2022-08-12 23:28:00,,0829.2,5.00,0.00,29.2,28.2,00.0,37.9,31.2,27.2,0000.0,0013.52,0004.64,0003.53
2022-08-12 23:29:00,,0829.3,5.00,0.00,29.3,28.1,00.0,37.9,31.2,27.1,0000.0,0013.80,0004.61,0003.53
2022-08-12 23:30:00,,0829.4,5.01,0.00,29.2,27.5,00.0,37.9,31.0,26.8,0000.0,0013.98,0004.65,0003.54
2022-08-12 23:31:00,,0829.4,4.98,0.00,29.2,27.2,00.0,37.9,30.9,26.8,0000.0,0014.49,0004.66,0003.55
2022-08-12 23:32:00,,0829.2,5.00,0.00,29.2,27.3,00.0,37.8,30.9,26.9,0000.0,0014.98,0004.63,0003.56
2022-08-12 23:33:00,,0829.2,5.01,0.00,29.1,27.4,00.0,37.9,30.9,27.0,0000.0,0014.52,0004.68,0003.58
2022-08-12 23:34:00,,0829.2,5.00,0.00,29.1,27.7,00.0,37.9,31.0,27.0,0000.0,0014.33,0004.69,0003.59
2022-08-12 23:35:00,,0829.2,4.99,0.00,29.2,27.9,00.0,37.9,31.1,27.0,0000.0,0014.15,0004.67,0003.59
2022-08-12 23:36:00,,0829.3,5.00,0.00,29.3,28.1,00.0,37.9,31.2,26.7,0000.0,0013.56,0004.69,0003.60
2022-08-12 23:37:00,,0829.2,4.99,0.00,29.3,28.0,00.0,37.9,31.2,26.7,0000.0,0013.69,0004.72,0003.62
2022-08-12 23:38:00,,0829.2,5.00,0.00,29.2,27.4,00.0,37.9,31.0,27.1,0000.0,0014.05,0004.68,0003.63
2022-08-12 23:39:00,,0829.3,5.01,0.00,29.2,27.2,00.0,37.9,30.9,27.5,0000.0,0014.61,0004.65,0003.64
2022-08-12 23:40:00,,0829.3,5.00,0.00,29.1,27.2,00.0,37.9,30.9,27.0,0000.0,0015.48,0004.68,0003.66
2022-08-12 23:41:00,,0829.3,5.00,0.00,29.1,27.4,00.0,37.9,30.9,26.8,0000.0,0017.03,0004.69,0003.68
2022-08-12 23:42:00,,0829.3,5.01,0.00,29.1,27.6,00.0,37.9,31.0,26.7,0000.0,0016.66,0004.74,0003.69
2022-08-12 23:43:00,,0829.2,5.00,0.00,29.2,27.8,00.0,37.9,31.1,26.7,0000.0,0016.22,0004.79,0003.69
2022-08-12 23:44:00,,0829.3,5.00,0.00,29.2,28.1,00.0,37.9,31.2,26.9,0000.0,0017.05,0004.80,0003.70
2022-08-12 23:45:00,,0829.3,5.00,0.00,29.3,28.2,00.0,37.9,31.2,27.4,0000.0,0018.17,0004.82,0003.72
2022-08-12 23:46:00,,0829.2,5.00,0.00,29.3,27.8,00.0,37.9,31.0,26.8,0000.0,0018.81,0004.86,0003.74
2022-08-12 23:47:00,,0829.3,5.00,0.00,29.2,27.3,00.0,37.9,30.9,27.0,0000.0,0019.30,0004.89,0003.75
2022-08-12 23:48:00,,0829.2,5.01,0.00,29.2,27.2,00.0,37.8,30.9,27.2,0000.0,0018.96,0004.91,0003.76
2022-08-12 23:49:00,,0829.2,5.00,0.00,29.1,27.3,00.0,37.9,30.9,26.8,0000.0,0019.58,0004.93,0003.77
2022-08-12 23:50:00,,0829.2,5.01,0.00,29.1,27.5,00.0,37.9,30.9,26.7,0000.0,0019.66,0004.96,0003.78
2022-08-12 23:51:00,,0829.2,4.99,0.00,29.1,27.7,00.0,37.9,31.0,26.6,0000.0,0019.10,0004.95,0003.79
2022-08-12 23:52:00,,0829.2,5.01,0.00,29.2,27.9,00.0,37.9,31.1,26.6,0000.0,0017.59,0004.95,0003.79
2022-08-12 23:53:00,,0829.2,5.00,0.00,29.3,28.1,00.0,37.9,31.2,26.7,0000.0,0017.49,0004.97,0003.79
2022-08-12 23:54:00,,0829.2,5.01,0.00,29.2,27.7,00.0,37.9,31.0,26.6,0000.0,0018.10,0004.97,0003.79
2022-08-12 23:55:00,,0829.1,4.99,0.00,29.2,27.2,00.0,37.9,30.9,26.9,0000.0,0017.69,0004.90,0003.79
2022-08-12 23:56:00,,0829.1,5.00,0.00,29.1,27.1,00.0,37.8,30.9,27.1,0000.0,0016.72,0004.90,0003.79
2022-08-12 23:57:00,,0829.1,5.01,0.00,29.1,27.2,00.0,37.8,30.8,27.1,0000.0,0016.26,0004.91,0003.79
2022-08-12 23:58:00,,0829.1,5.00,0.00,29.1,27.4,00.0,37.8,30.9,27.2,0000.0,0016.94,0004.91,0003.79
2022-08-12 23:59:00,,0829.1,5.00,0.00,29.1,27.6,00.0,37.8,31.0,27.6,0000.0,0017.48,0004.86,0003.79
